Bryce, UT

2:55 PM MDT on September 30, 2016 (GMT -0600)
Bryce Canyon

Weather History for KBCE - March, 2014

Change the Weather History Date:

Tuesday, March 18, 2014

  Actual Average Record
Temperature  
Mean Temperature 26 °F -  
Max Temperature 39 °F 43 °F 66 °F (2007)
Min Temperature 15 °F 16 °F -5 °F (1963)
Degree Days  
Heating Degree Days 39    
Moisture  
Dew Point 3 °F    
Average Humidity 40    
Maximum Humidity 62    
Minimum Humidity 18    
Precipitation  
Precipitation 0.00 in - - ()
Sea Level Pressure  
Sea Level Pressure 29.91 in    
Wind  
Wind Speed 12 mph (NNW)    
Max Wind Speed 18 mph    
Max Gust Speed 29 mph    
Visibility 10 miles    
Events      
Averages and records for this station are not official NWS values.
T = Trace of Precipitation, MM = Missing Value Source: NWS Daily Summary

Daily Weather History Graph

Daily Weather History Graph

Search for Another Location

Airport or City:

Trip Planner

Search our weather history database for the weather conditions in past years. The results will help you decide how hot, cold, wet, or windy it might be!

Date:

Astronomy

Mar. 18, 2014 Rise Set
Actual Time 7:35 AM MDT 7:38 PM MDT
Civil Twilight 7:08 AM MDT 8:04 PM MDT
Nautical Twilight 6:38 AM MDT 8:35 PM MDT
Astronomical Twilight 6:07 AM MDT 9:06 PM MDT
Moon 9:56 PM MDT (3/18) 8:29 AM MDT (3/18)
Length of Visible Light 12h 55m
Length of Day
12h 03m
Waning Gibbous, 96% of the Moon is Illuminated
Mar 18
Waning Gibbous
Mar 23
Last Quarter
Mar 30
New
Apr 7
First Quarter
Apr 15
Full

Hourly Weather History & Observations

Time (MDT) Temp. Windchill Dew Point Humidity Pressure Visibility Wind Dir Wind Speed Gust Speed Precip Events Conditions
12:53 AM 23.0 °F 11.1 °F 1.0 °F 39% 29.70 in 10.0 mi North 12.7 mph 23.0 mph N/A   Clear
1:53 AM 19.0 °F 9.0 °F 3.9 °F 52% 29.74 in 10.0 mi North 8.1 mph - N/A   Clear
2:53 AM 19.0 °F 7.5 °F 3.9 °F 52% 29.74 in 10.0 mi NNW 10.4 mph - N/A   Clear
3:53 AM 15.1 °F 4.2 °F 3.0 °F 59% 29.76 in 10.0 mi NNW 8.1 mph - N/A   Clear
4:53 AM 18.0 °F 5.4 °F 6.1 °F 60% 29.76 in 10.0 mi North 11.5 mph - N/A   Clear
5:53 AM 19.0 °F 5.0 °F 6.1 °F 57% 29.80 in 10.0 mi North 15.0 mph 23.0 mph N/A   Clear
6:53 AM 17.1 °F 3.0 °F 6.1 °F 62% 29.86 in 10.0 mi NNW 13.8 mph - N/A   Clear
7:53 AM 17.1 °F 3.6 °F 5.0 °F 59% 29.91 in 10.0 mi NNW 12.7 mph - N/A   Clear
8:53 AM 21.9 °F 8.7 °F 1.9 °F 42% 29.92 in 10.0 mi WNW 15.0 mph - N/A   Clear
9:53 AM 27.0 °F 15.6 °F 3.0 °F 36% 29.92 in 10.0 mi NNE 13.8 mph - N/A   Clear
10:53 AM 28.9 °F 17.7 °F 3.9 °F 35% 29.96 in 10.0 mi NNE 15.0 mph 21.9 mph N/A   Clear
11:53 AM 30.9 °F 19.4 °F 1.9 °F 29% 29.96 in 10.0 mi NE 17.3 mph 28.8 mph N/A   Clear
12:53 PM 35.1 °F 26.9 °F -5.1 °F 18% 29.92 in 10.0 mi NW 11.5 mph - N/A   Clear
1:53 PM 36.0 °F - -0.0 °F 22% 29.92 in 10.0 mi North - - N/A   Clear
2:53 PM 37.0 °F 28.9 °F 1.0 °F 22% 29.91 in 10.0 mi WNW 12.7 mph 18.4 mph N/A   Clear
3:53 PM 37.9 °F 28.9 °F 5.0 °F 25% 29.92 in 10.0 mi West 16.1 mph 23.0 mph N/A   Clear
4:53 PM 37.9 °F 28.2 °F 1.9 °F 22% 29.92 in 10.0 mi NW 18.4 mph 24.2 mph N/A   Clear
5:53 PM 36.0 °F 27.1 °F -0.9 °F 21% 29.93 in 10.0 mi WNW 13.8 mph 23.0 mph N/A   Clear
6:53 PM 34.0 °F 24.6 °F -0.9 °F 23% 29.97 in 10.0 mi NW 13.8 mph - N/A   Clear
7:53 PM 28.9 °F 18.6 °F 1.0 °F 30% 30.02 in 10.0 mi NW 12.7 mph 21.9 mph N/A   Clear
8:53 PM 26.1 °F 15.6 °F 5.0 °F 41% 30.04 in 10.0 mi NW 11.5 mph - N/A   Clear
9:53 PM 26.1 °F - 5.0 °F 41% 30.05 in 10.0 mi North - - N/A   Clear
10:53 PM 21.9 °F 12.5 °F 8.1 °F 55% 30.06 in 10.0 mi North 8.1 mph - N/A   Clear
11:53 PM 17.1 °F - 6.1 °F 62% 30.11 in 10.0 mi Calm Calm - N/A   Clear